Regional Weather Roundup
Issued by NWS

Home | Current Version | Previous Version | Text Only | Print | Product List | Glossary On
Versions: 1 2 3 4 5 6 7 8 9 10 11 12 13 14 15 16 17 18 19 20 21 22 23 24 25 26 27 28 29 30 31 32 33 34 35 36 37 38 39 40 41 42 43 44 45 46 47 48 49 50
000
ASUS46 KSEW 220010
RWRWA

WASHINGTON REGIONAL WEATHER ROUNDUP
NATIONAL WEATHER SERVICE SEATTLE WA
400 PM PST SUN DEC 21 2014

NOTE:"FAIR" INDICATES FEW OR NO CLOUDS BELOW 12,000 FEET WITH NO
SIGNIFICANT WEATHER AND/OR OBSTRUCTIONS TO VISIBILITY.

WAZ505-507>509-220100-
SEATTLE, TACOMA, EVERETT, AND VICINITY

CITY           SKY/WX    TMP DP  RH WIND       PRES   REMARKS
EVERETT        CLOUDY    51  44  77 CALM      30.01R
6HR MIN TEMP:  48; 6HR MAX TEMP:  51;

BOEING FIELD   CLOUDY    56  44  64 S5        30.01S
6HR MIN TEMP:  54; 6HR MAX TEMP:  58;

RENTON         CLOUDY    53  46  77 S8        30.01S
6HR MIN TEMP:  52; 6HR MAX TEMP:  56;

SEATAC AIRPORT CLOUDY    52  45  77 SW13      30.01F
6HR MIN TEMP:  51; 6HR MAX TEMP:  55;

JBLM-MCCHORD   CLOUDY    51  47  84 SW13      30.03F
6HR MIN TEMP:  51; 6HR MAX TEMP:  55; 6HR PCP: TRACE;

PUYALLUP       NOT AVBL
JBLM-FT LEWIS  MOCLDY    51  47  88 SW3       30.04S
6HR MIN TEMP:  50; 6HR MAX TEMP:  55; 6HR PCP: TRACE;

TACOMA NARROWS CLOUDY    52  46  80 S10       30.01F
6HR MIN TEMP:  51; 6HR MAX TEMP:  55; 6HR PCP: TRACE;

$$

WAZ001-503-506-510-514-515-220100-
NORTH INTERIOR

CITY           SKY/WX    TMP DP  RH WIND       PRES   REMARKS
BELLINGHAM     CLOUDY    51  44  77 S12G17    29.97R
6HR MIN TEMP:  50; 6HR MAX TEMP:  52; 6HR PCP: TRACE;

FRIDAY HARBOR  CLOUDY    51  45  79 SW10      29.98R
6HR MIN TEMP:  49; 6HR MAX TEMP:  51; 6HR PCP:  0.01;

EASTSOUND      CLOUDY    50  46  87 S7        29.96R
PORT ANGELES   CLOUDY    50  42  74 W9        30.01R
6HR MIN TEMP:  50; 6HR MAX TEMP:  53; 6HR PCP:  0.02;

NAS WHIDBEY    CLOUDY    53  44  71 SW9       30.00S
6HR MIN TEMP:  52; 6HR MAX TEMP:  55; 6HR PCP:  0.03;

BURLINGTON     CLEAR     50  46  87 SW6       30.01R
$$

WAZ020-022-039-040-504-511-512-220100-
SOUTHWEST INTERIOR

CITY           SKY/WX    TMP DP  RH WIND       PRES   REMARKS
SHELTON        CLOUDY    50  44  80 W12       30.03R
6HR MIN TEMP:  50; 6HR MAX TEMP:  54; 6HR PCP: TRACE;

OLYMPIA        CLOUDY    50  47  89 CALM      30.06R
6HR MIN TEMP:  50; 6HR MAX TEMP:  55; 6HR PCP:  0.05;

CHEHALIS       CLOUDY    55  50  82 VRB7G14   30.06S
KELSO          CLOUDY    55  46  71 CALM      30.13R
6HR MIN TEMP:  54; 6HR MAX TEMP:  55;

VANCOUVER      LGT RAIN  54  48  80 CALM      30.11R
6HR MIN TEMP:  53; 6HR MAX TEMP:  55; 6HR PCP:  0.01;

SCAPPOOSE, OR  CLOUDY    54  49  83 CALM      30.09R
6HR MIN TEMP:  51; 6HR MAX TEMP:  56;

PORTLAND, OR   LGT RAIN  54  50  86 CALM      30.12R
6HR MIN TEMP:  53; 6HR MAX TEMP:  56; 6HR PCP: TRACE;

$$

WAZ021-516-517-220100-
WASHINGTON COAST

CITY           SKY/WX    TMP DP  RH WIND       PRES   REMARKS
FORKS          CLOUDY    51  49  92 W9        30.04R FOG
6HR MIN TEMP:  50; 6HR MAX TEMP:  53; 6HR PCP:  0.04;

HOQUIAM        CLOUDY    53  50  89 W10       30.07R FOG
6HR MIN TEMP:  53; 6HR MAX TEMP:  55; 6HR PCP:  0.02;

ASTORIA, OR    CLOUDY    54  51  90 SW7       30.10R
6HR MIN TEMP:  54; 6HR MAX TEMP:  56;

$$

WAZ019-023-024-040-518-519-220100-
CASCADE MOUNTAINS AND COLUMBIA GORGE

CITY           SKY/WX    TMP DP  RH WIND       PRES   REMARKS
TROUTDALE, OR  CLOUDY    55  50  83 SW6       30.10R
6HR MIN TEMP:  55; 6HR MAX TEMP:  57; 6HR PCP: TRACE;

THE DALLES, OR CLOUDY    51  45  79 E5        30.05R
6HR MIN TEMP:  51; 6HR MAX TEMP:  54; 6HR PCP:  0.05;

$$

WAZ026-027-041>044-520-521-220100-
EAST SLOPES

CITY           SKY/WX    TMP DP  RH WIND       PRES   REMARKS
OMAK           PTCLDY    45  34  65 S3        29.86R
6HR MIN TEMP:  40; 6HR MAX TEMP:  51;

WENATCHEE      MOCLDY    49  37  63 NW10      29.92R
6HR MIN TEMP:  42; 6HR MAX TEMP:  52; 6HR PCP:  0.03;

ELLENSBURG     MOCLDY    48  37  65 W6        29.96R
6HR MIN TEMP:  48; 6HR MAX TEMP:  53;

YAKIMA         NOT AVBL
$$

WAZ028-034-035-220100-
COLUMBIA BASIN

CITY           SKY/WX    TMP DP  RH WIND       PRES   REMARKS
EPHRATA        CLEAR     50  35  56 VRB7G17   29.90R
6HR MIN TEMP:  46; 6HR MAX TEMP:  55;

MOSES LAKE     CLEAR     49  37  63 W3        29.92R
6HR MIN TEMP:  42; 6HR MAX TEMP:  55;

PASCO          PTCLDY    52  41  66 SW6       29.98R
6HR MIN TEMP:  51; 6HR MAX TEMP:  59;

HERMISTON, OR  CLOUDY    53  41  63 W12       30.01R
6HR MIN TEMP:  53; 6HR MAX TEMP:  57;

$$

WAZ036>038-220100-
NORTHEAST WASHINGTON

CITY           SKY/WX    TMP DP  RH WIND       PRES   REMARKS
SPOKANE GEIGER CLOUDY    45  36  70 W12       29.87R
6HR MIN TEMP:  44; 6HR MAX TEMP:  49;

SPOKANE FELTS  CLOUDY    48  36  63 W9G17     29.87R
6HR MIN TEMP:  43; 6HR MAX TEMP:  51;

FAIRCHILD AFB  CLOUDY    43  37  78 SW12      29.87R
6HR MIN TEMP:  43; 6HR MAX TEMP:  48; 6HR PCP: TRACE;

COEURDALENE,ID CLOUDY    43  36  75 SW6       29.84S
6HR MIN TEMP:  43; 6HR MAX TEMP:  46;

DEER PARK      CLOUDY    45  35  68 SW9       29.86R
6HR MIN TEMP:  44; 6HR MAX TEMP:  48;

$$

WAZ029>033-220100-
SOUTHEAST WASHINGTON

CITY           SKY/WX    TMP DP  RH WIND       PRES   REMARKS
PULLMAN        MOCLDY    45  39  79 W14G23    29.93R
6HR MIN TEMP:  45; 6HR MAX TEMP:  49;

LEWISTON, ID   MOCLDY    51  36  56 W9        29.93R
6HR MIN TEMP:  51; 6HR MAX TEMP:  56; 6HR PCP: TRACE;

WALLA WALLA    MOCLDY    51  41  68 S13       30.00R
6HR MIN TEMP:  51; 6HR MAX TEMP:  54;

PENDLETON, OR  CLOUDY    49  40  71 W16       30.00R
6HR MIN TEMP:  49; 6HR MAX TEMP:  52;

$$


USA.gov is the U.S. government's official web portal to all federal, state and local government web resources and services.